Concordia, KS

3:41 PM CST on December 08, 2019 (GMT -0600)
Blosser Municipal

Weather History for KCNK - October, 2019

Change the Weather History Date:

Monday, October 7, 2019

  Actual Average Record
Temperature  
Mean Temperature 60 °F 59 °F  
Max Temperature 73 °F 71 °F 91 °F (1949)
Min Temperature 47 °F 47 °F 24 °F (2000)
Degree Days  
Heating Degree Days 5 7  
Month to date heating degree days 43 46  
Since 1 July heating degree days 46 119  
Cooling Degree Days 0 1  
Month to date cooling degree days 6 11  
Year to date cooling degree days 1654 1337  
Growing Degree Days 10 (Base 50)    
Moisture  
Dew Point 39 °F    
Average Humidity 48    
Maximum Humidity 71    
Minimum Humidity 25    
Precipitation  
Precipitation 0.00 in 0.07 in 3.01 in (1992)
Month to date precipitation 1.01 0.53  
Year to date precipitation 32.03 24.54  
Snow  
Snow 0.00 in 0.00 in 0.00 in ()
Month to date snowfall 0.0 0.0  
Year to date snowfall 32.3 13.7  
Since 1 July snowfall 0.0 0.0  
Snow Depth 0.00 in    
Sea Level Pressure  
Sea Level Pressure 30.23 in    
Wind  
Wind Speed 10 mph (SW)    
Max Wind Speed 17 mph    
Max Gust Speed 24 mph    
Visibility 10 miles    
Events      
T = Trace of Precipitation, MM = Missing Value Source: NWS Daily Summary

Daily Weather History Graph

Daily Weather History Graph

Search for Another Location

Airport or City:

Astronomy

Oct. 07, 2019 Rise Set
Actual Time 7:32 AM CDT 7:03 PM CDT
Civil Twilight 7:05 AM CDT 7:30 PM CDT
Nautical Twilight 6:34 AM CDT 8:01 PM CDT
Astronomical Twilight 6:03 AM CDT 8:33 PM CDT
Moon 4:24 PM CDT (10/7) 1:28 AM CDT (10/7)
Length of Visible Light 12h 25m
Length of Day
11h 31m
Waxing Gibbous, 69% of the Moon is Illuminated
Oct 7
Waxing Gibbous
Oct 13
Full
Oct 21
Last Quarter
Oct 27
New
Nov 4
First Quarter

Hourly Weather History & Observations

Time (CDT) Temp. Dew Point Humidity Pressure Visibility Wind Dir Wind Speed Gust Speed Precip Events Conditions
12:55 AM 52.0 °F 37.9 °F 59% 30.28 in 10.0 mi WSW 4.6 mph - N/A   Clear
1:55 AM 50.0 °F 37.9 °F 63% 30.28 in 10.0 mi SW 6.9 mph - N/A   Clear
2:55 AM 51.1 °F 37.0 °F 59% 30.28 in 10.0 mi WSW 6.9 mph - N/A   Clear
3:55 AM 50.0 °F 39.0 °F 66% 30.27 in 10.0 mi WSW 6.9 mph - N/A   Clear
4:55 AM 48.0 °F 39.9 °F 74% 30.28 in 10.0 mi WSW 9.2 mph - N/A   Clear
5:55 AM 48.0 °F 39.0 °F 71% 30.28 in 10.0 mi West 9.2 mph - N/A   Clear
6:55 AM 48.0 °F 37.9 °F 68% 30.29 in 10.0 mi West 9.2 mph - N/A   Clear
7:55 AM 48.0 °F 39.0 °F 71% 30.30 in 10.0 mi WSW 9.2 mph - N/A   Clear
8:55 AM 51.1 °F 41.0 °F 68% 30.32 in 10.0 mi West 9.2 mph - N/A   Clear
9:55 AM 55.9 °F 44.1 °F 64% 30.32 in 10.0 mi West 8.1 mph - N/A   Clear
10:55 AM 62.1 °F 45.0 °F 53% 30.32 in 10.0 mi West 6.9 mph - N/A   Clear
12:55 PM 71.1 °F 42.1 °F 35% 30.27 in 10.0 mi WSW 9.2 mph - N/A   Clear
1:55 PM 73.0 °F 37.9 °F 28% 30.24 in 10.0 mi SSW 11.5 mph - N/A   Clear
2:55 PM 73.0 °F 36.0 °F 26% 30.21 in 10.0 mi South 12.7 mph - N/A   Clear
3:55 PM 73.0 °F 37.0 °F 27% 30.18 in 10.0 mi South 11.5 mph 20.7 mph N/A   Clear
4:55 PM 72.0 °F 34.0 °F 25% 30.16 in 10.0 mi South 12.7 mph - N/A   Clear
5:55 PM 70.0 °F 37.9 °F 31% 30.14 in 10.0 mi South 10.4 mph - N/A   Clear
6:55 PM 63.0 °F 41.0 °F 45% 30.14 in 10.0 mi South 8.1 mph - N/A   Clear
7:55 PM 57.0 °F 42.1 °F 57% 30.14 in 10.0 mi South 8.1 mph - N/A   Clear
8:55 PM 55.0 °F 41.0 °F 59% 30.14 in 10.0 mi South 9.2 mph - N/A   Clear
9:55 PM 55.0 °F 41.0 °F 59% 30.14 in 10.0 mi South 10.4 mph - N/A   Clear
10:55 PM 57.0 °F 41.0 °F 55% 30.13 in 10.0 mi South 13.8 mph - N/A   Clear
11:55 PM 57.0 °F 39.9 °F 53% 30.11 in 10.0 mi South 12.7 mph - N/A   Clear